Flag for Switzerland Weather past 2 weeks in Schwyz, Schwyz, Switzerland

Now
75 °F

Mild.


Feels Like: 77 °F
Forecast: 66 / 90 °F
Wind: 1 mph from Southwest

Location: Altdorf

Current Time: Aug 30, 2015 at 8:25:01 PM

Latest Report: Aug 30, 2015 at 7:00 PM


Visibility: N/A

Pressure: 30.00 "Hg (28.28 "Hg at 515m altitude)

Humidity: 58%

Dew point: 59 °F

Location of SchwyzLocation

Historic Weather in Schwyz — Graph

°F

Schwyz temperature yesterday

Maximum temperature yesterday: 82 °F (at 4:00 PM)
Minimum temperature yesterday: 60 °F (at 7:00 AM)
Average temperature yesterday: 72 °F

Past Weeks' High & Low Weather Summary

 TemperatureHumidityPressure
High86 °F (Aug 30, 5:00 PM)99% (Aug 19, 2:00 AM)30.28 "Hg (Aug 19, 2:00 AM)
Low50 °F (Aug 26, 7:00 AM)34% (Aug 30, 1:00 PM)29.67 "Hg (Aug 24, 8:00 AM)
Average64 °F75%30.01 "Hg
* Reported Aug 15 7:00 PM — Aug 30 7:00 PM, Schwyz, Weather by CustomWeather, © 2015

Note: Actual official high and low records may vary slightly from our data, if they occured in-between our weather recording intervals... More about our weather records

Advertising

Schwyz weather history for previous 24 hours

 ConditionsComfort  
Time TempWeatherWind HumidityBarometerVisibility
7:00 PM
Sun, Aug 30
75 °FMild.1 mph58%30.00 "HgN/A
6:00 PM82 °FPleasantly warm.2 mph39%29.97 "HgN/A
5:00 PM86 °FSunny.3 mph36%29.96 "Hg19 mi
4:00 PM85 °FWarm.5 mph40%29.98 "HgN/A
3:00 PM85 °FPleasantly warm.6 mph40%30.01 "HgN/A
2:00 PM83 °FSunny.5 mph37%30.03 "Hg19 mi
1:00 PM81 °FPleasantly warm.5 mph34%30.07 "HgN/A
12:00 PM81 °FPleasantly warm.2 mph36%30.09 "HgN/A
11:00 AM76 °FMild.2 mph39%30.11 "HgN/A
10:00 AM74 °FMild.1 mph55%30.13 "HgN/A
9:00 AM69 °FMild.No wind69%30.16 "HgN/A
8:00 AM60 °FSunny.3 mph80%30.18 "Hg19 mi
7:00 AM56 °FCool.No wind91%30.19 "HgN/A
6:00 AM60 °FCool.1 mph82%30.16 "HgN/A
5:00 AM58 °FClear.2 mph92%30.16 "Hg19 mi
4:00 AM63 °FMild.2 mph87%30.14 "HgN/A
3:00 AM63 °FMild.3 mph90%30.13 "HgN/A
2:00 AM65 °FClear.3 mph84%30.12 "Hg19 mi
1:00 AM68 °FMild.3 mph81%30.11 "HgN/A
12:00 AM67 °FMild.2 mph84%30.10 "HgN/A
10:00 PM
Sat, Aug 29
70 °FMild.2 mph79%30.09 "HgN/A
9:00 PM69 °FMild.3 mph84%30.08 "HgN/A
Weather by CustomWeather, © 2015

See weather overviewHow to use our weather pages